Powrót do katalogu

CZ-6A DEB

AktywnySSO
NORAD 56634·DEBRIS·🇨🇳 China

Wystrzelony Nov 11, 2022 z Taiyuan Satellite Launch Center

Loading…

Następne Przeloty (najbliższe 24 godziny)

TLE

ŚwieżeSource: Space-Track

Epoka: Sep 14, 2026, 21:56 UTC

1 56634U 22151AFJ 26257.91421762  .00000127  00000-0  77898-4 0  9992
2 56634  98.7750 280.8093 0013383 129.3387 230.8979 14.21728307176370

Śledź CZ-6A DEB w czasie rzeczywistym z AllMySat

Download on the App Store